User: anonymous   Login
Location: Ostrava
(49.8330°N, 18.2830°E)
Time: 08:05:04
(UTC+01:00)
Language:

Iridium 7 - Orbit

View from above orbital plane
View from above orbital plane
View from above satellite
View from above satellite

Ground track
Ground track

The orbit data is extracted from the following two-line orbital elements,

1 24793U 97020B   15029.45251170  .00000518  00000-0  17796-3 0  1499
2 24793 086.4004 322.4703 0002147 098.4628 037.4908 14.34216635928534
Epoch (UTC): 29 January 2015 10:51:37
Eccentricity: 0.0002147
inclination: 86.4004°
perigee height: 776 km
apogee height: 779 km
right ascension of ascending node: 322.4703°
argument of perigee: 98.4628°
revolutions per day: 14.34216635
mean anomaly at epoch: 37.4908°
orbit number at epoch: 92853

The dashed part of the orbit path shows where the satellite is in the earth's shadow,  

DLR